TimeAKDT,TemperatureF,Dew PointF,Humidity,Sea Level PressureIn,VisibilityMPH,Wind Direction,Wind SpeedMPH,Gust SpeedMPH,PrecipitationIn,Events,Conditions,WindDirDegrees,DateUTC
12:16 AM,37.4,35.6,93,29.88,10.0,Calm,Calm,-,N/A,,Partly Cloudy,0,2013-08-25 08:16:00
12:36 AM,35.6,33.8,93,29.88,10.0,Calm,Calm,-,N/A,,Clear,0,2013-08-25 08:36:00
12:56 AM,37.4,35.6,93,29.88,10.0,Calm,Calm,-,N/A,,Clear,0,2013-08-25 08:56:00
1:16 AM,37.4,35.6,93,29.88,10.0,NW,3.5,-,N/A,,Clear,310,2013-08-25 09:16:00
1:36 AM,35.6,35.6,100,29.87,10.0,Calm,Calm,-,N/A,,Clear,0,2013-08-25 09:36:00
1:56 AM,35.6,35.6,100,29.88,10.0,Calm,Calm,-,N/A,,Clear,0,2013-08-25 09:56:00
2:16 AM,39.2,33.8,81,29.88,10.0,West,3.5,-,N/A,,Clear,280,2013-08-25 10:16:00
2:36 AM,35.6,35.6,100,29.88,10.0,Calm,Calm,-,N/A,,Clear,0,2013-08-25 10:36:00
2:56 AM,33.8,33.8,100,29.88,10.0,Calm,Calm,-,N/A,,Clear,0,2013-08-25 10:56:00
3:16 AM,33.8,33.8,100,29.88,10.0,Calm,Calm,-,N/A,,Clear,0,2013-08-25 11:16:00
3:36 AM,32.0,32.0,100,29.88,10.0,Calm,Calm,-,N/A,,Clear,0,2013-08-25 11:36:00
3:56 AM,32.0,32.0,100,29.87,10.0,Calm,Calm,-,N/A,,Clear,0,2013-08-25 11:56:00
4:16 AM,30.2,30.2,100,29.87,10.0,Calm,Calm,-,N/A,,Clear,0,2013-08-25 12:16:00
4:36 AM,30.2,30.2,100,29.87,10.0,Calm,Calm,-,N/A,,Clear,0,2013-08-25 12:36:00
4:56 AM,28.4,28.4,100,29.86,10.0,Calm,Calm,-,N/A,,Clear,0,2013-08-25 12:56:00
5:16 AM,28.4,28.4,100,29.86,10.0,Calm,Calm,-,N/A,,Clear,0,2013-08-25 13:16:00
5:36 AM,28.4,28.4,100,29.86,10.0,Calm,Calm,-,N/A,,Clear,0,2013-08-25 13:36:00
5:56 AM,28.4,26.6,93,29.86,10.0,Calm,Calm,-,N/A,,Clear,0,2013-08-25 13:56:00
6:16 AM,28.4,28.4,100,29.85,10.0,Calm,Calm,-,N/A,,Clear,0,2013-08-25 14:16:00
6:36 AM,28.4,28.4,100,29.85,10.0,Calm,Calm,-,N/A,,Clear,0,2013-08-25 14:36:00
6:56 AM,26.6,26.6,100,29.85,10.0,Calm,Calm,-,N/A,,Clear,0,2013-08-25 14:56:00
7:16 AM,26.6,26.6,100,29.85,10.0,Calm,Calm,-,N/A,,Clear,0,2013-08-25 15:16:00
7:36 AM,28.4,28.4,100,29.84,10.0,Calm,Calm,-,N/A,,Clear,0,2013-08-25 15:36:00
7:56 AM,32.0,30.2,93,29.84,10.0,Calm,Calm,-,N/A,,Clear,0,2013-08-25 15:56:00
8:16 AM,33.8,33.8,100,29.84,10.0,Calm,Calm,-,N/A,,Clear,0,2013-08-25 16:16:00
8:36 AM,35.6,33.8,93,29.84,10.0,Calm,Calm,-,N/A,,Clear,0,2013-08-25 16:36:00
8:56 AM,37.4,33.8,87,29.83,10.0,Calm,Calm,-,N/A,,Clear,0,2013-08-25 16:56:00
9:16 AM,35.6,33.8,93,29.83,10.0,Calm,Calm,-,N/A,,Clear,0,2013-08-25 17:16:00
9:36 AM,37.4,33.8,87,29.82,10.0,Calm,Calm,-,N/A,,Clear,0,2013-08-25 17:36:00
9:56 AM,39.2,33.8,81,29.82,10.0,Calm,Calm,-,N/A,,Clear,0,2013-08-25 17:56:00
10:16 AM,41.0,33.8,76,29.81,10.0,Calm,Calm,-,N/A,,Clear,0,2013-08-25 18:16:00
10:36 AM,42.8,35.6,76,29.80,10.0,Calm,Calm,-,N/A,,Clear,0,2013-08-25 18:36:00
10:56 AM,44.6,35.6,71,29.80,10.0,Calm,Calm,-,N/A,,Clear,0,2013-08-25 18:56:00
11:16 AM,46.4,33.8,62,29.79,10.0,Calm,Calm,-,N/A,,Clear,0,2013-08-25 19:16:00
11:36 AM,48.2,33.8,58,29.78,10.0,Calm,Calm,-,N/A,,Clear,0,2013-08-25 19:36:00
11:56 AM,48.2,32.0,54,29.77,10.0,Calm,Calm,-,N/A,,Clear,0,2013-08-25 19:56:00
12:16 PM,51.8,32.0,47,29.76,10.0,Calm,Calm,-,N/A,,Clear,0,2013-08-25 20:16:00
12:36 PM,51.8,30.2,44,29.76,10.0,Calm,Calm,-,N/A,,Clear,0,2013-08-25 20:36:00
12:56 PM,53.6,28.4,38,29.75,10.0,Calm,Calm,-,N/A,,Clear,0,2013-08-25 20:56:00
1:16 PM,55.4,28.4,36,29.75,10.0,Calm,Calm,-,N/A,,Clear,0,2013-08-25 21:16:00
1:36 PM,55.4,26.6,33,29.74,10.0,Calm,Calm,-,N/A,,Clear,0,2013-08-25 21:36:00
1:56 PM,57.2,26.6,31,29.74,10.0,Calm,Calm,-,N/A,,Clear,0,2013-08-25 21:56:00
2:16 PM,57.2,26.6,31,29.73,10.0,East,4.6,-,N/A,,Clear,100,2013-08-25 22:16:00
2:36 PM,59.0,26.6,29,29.72,10.0,East,4.6,-,N/A,,Clear,100,2013-08-25 22:36:00
2:56 PM,59.0,26.6,29,29.72,10.0,SSE,3.5,-,N/A,,Clear,160,2013-08-25 22:56:00
3:16 PM,60.8,24.8,25,29.71,10.0,South,3.5,-,N/A,,Clear,190,2013-08-25 23:16:00
3:36 PM,60.8,24.8,25,29.71,10.0,SSW,4.6,-,N/A,,Clear,210,2013-08-25 23:36:00
3:56 PM,60.8,24.8,25,29.70,10.0,Calm,Calm,-,N/A,,Clear,0,2013-08-25 23:56:00
4:16 PM,60.8,26.6,27,29.70,10.0,South,3.5,-,N/A,,Clear,170,2013-08-26 00:16:00
4:36 PM,62.6,24.8,24,29.69,10.0,Calm,Calm,-,N/A,,Clear,0,2013-08-26 00:36:00
4:56 PM,62.6,21.2,20,29.69,10.0,SW,3.5,-,N/A,,Clear,220,2013-08-26 00:56:00
5:16 PM,62.6,24.8,24,29.69,10.0,SSE,4.6,-,N/A,,Clear,150,2013-08-26 01:16:00
5:36 PM,62.6,24.8,24,29.69,10.0,Calm,Calm,-,N/A,,Clear,0,2013-08-26 01:36:00
5:56 PM,62.6,24.8,24,29.68,10.0,ESE,3.5,-,N/A,,Clear,110,2013-08-26 01:56:00
6:16 PM,62.6,24.8,24,29.68,10.0,SSE,3.5,-,N/A,,Clear,150,2013-08-26 02:16:00
6:36 PM,62.6,26.6,26,29.68,10.0,Calm,Calm,-,N/A,,Clear,0,2013-08-26 02:36:00
6:56 PM,60.8,28.4,29,29.68,10.0,NE,3.5,-,N/A,,Clear,50,2013-08-26 02:56:00
7:16 PM,60.8,30.2,31,29.68,10.0,North,4.6,-,N/A,,Clear,10,2013-08-26 03:16:00
7:36 PM,57.2,32.0,38,29.68,10.0,NNE,4.6,-,N/A,,Clear,20,2013-08-26 03:36:00
7:56 PM,57.2,35.6,44,29.68,10.0,NNE,6.9,-,N/A,,Clear,20,2013-08-26 03:56:00
8:16 PM,55.4,37.4,51,29.69,10.0,North,5.8,-,N/A,,Clear,360,2013-08-26 04:16:00
8:36 PM,53.6,37.4,54,29.69,10.0,North,6.9,-,N/A,,Clear,10,2013-08-26 04:36:00
8:56 PM,53.6,37.4,54,29.70,10.0,North,4.6,-,N/A,,Clear,360,2013-08-26 04:56:00
9:16 PM,51.8,37.4,58,29.70,10.0,North,9.2,-,N/A,,Clear,10,2013-08-26 05:16:00
9:36 PM,51.8,37.4,58,29.71,10.0,North,5.8,-,N/A,,Clear,350,2013-08-26 05:36:00
9:56 PM,50.0,37.4,62,29.71,10.0,North,4.6,-,N/A,,Clear,350,2013-08-26 05:56:00
10:16 PM,50.0,35.6,58,29.72,10.0,NW,3.5,-,N/A,,Clear,320,2013-08-26 06:16:00
10:36 PM,44.6,35.6,71,29.72,10.0,West,3.5,-,N/A,,Clear,260,2013-08-26 06:36:00
10:56 PM,42.8,35.6,76,29.73,10.0,West,3.5,-,N/A,,Clear,270,2013-08-26 06:56:00
11:16 PM,42.8,35.6,76,29.73,10.0,Calm,Calm,-,N/A,,Clear,0,2013-08-26 07:16:00
11:36 PM,39.2,33.8,81,29.74,10.0,Calm,Calm,-,N/A,,Clear,0,2013-08-26 07:36:00
11:56 PM,39.2,33.8,81,29.74,10.0,Calm,Calm,-,N/A,,Clear,0,2013-08-26 07:56:00